Location: Bailleul
(50.3375°N, 2.8513°E)
Time: 08:52:13
(UTC+00:00)

ALOS 2 - Pass Details

Date: 16 June 2021
Orbit: 630 x 632 km, 97.9° (Epoch: 01 August)

Event Time Altitude Azimuth Distance (km) Brightness Sun altitude
Exits shadow 22:12:03 14° 119° (ESE) 1,787 4.5 -13.2°
Maximum altitude 22:15:10 29° 65° (ENE) 1,162 4.0 -13.4°
Drops below altitude 10° 22:18:59 10° 5° (N) 2,027 6.3 -13.6°
Sets 22:21:24 0° 354° (N) 2,940 7.7 -13.7°
